This is the latest recevied weather packets stored in our database for station/object K4MGY-13. If no packets are shown the sender has not sent any weather packets the latest 10 day(s).
| Time | Temp. | Humidity | Pressure | Rain* | Wind** | Luminosity | Snow |
|---|---|---|---|---|---|---|---|
| 1777855087 | 18.33° C | 40% | 1014.9 hPa | 0 mm | - | - | - |
| 1777854757 | 18.89° C | 39% | 1014.9 hPa | 0 mm | - | - | - |
| 1777854456 | 18.89° C | 38% | 1014.9 hPa | 0 mm | - | - | - |
| 1777854128 | 19.44° C | 37% | 1015.1 hPa | 0 mm | - | - | - |
| 1777853826 | 19.44° C | 37% | 1015 hPa | 0 mm | - | - | - |
| 1777853526 | 20° C | 37% | 1014.7 hPa | 0 mm | - | - | - |
| 1777853196 | 20° C | 35% | 1014.9 hPa | 0 mm | - | - | - |
| 1777852867 | 20.56° C | 35% | 1014.8 hPa | 0 mm | - | - | - |
| 1777852567 | 20.56° C | 34% | 1014.9 hPa | 0 mm | - | - | - |
| 1777852266 | 21.11° C | 34% | 1015 hPa | 0 mm | - | - | - |
| 1777851937 | 21.11° C | 33% | 1015.2 hPa | 0 mm | - | - | - |
| 1777851638 | 21.11° C | 33% | 1015.2 hPa | 0 mm | - | - | - |
| 1777851336 | 21.11° C | 33% | 1015 hPa | 0 mm | - | - | - |
| 1777851007 | 21.11° C | 32% | 1015.2 hPa | 0 mm | - | - | - |
| 1777850706 | 21.11° C | 32% | 1015.3 hPa | 0 mm | - | - | - |
| 1777849776 | 21.67° C | 32% | 1015.1 hPa | 0 mm | - | - | - |
| 1777849446 | 21.67° C | 32% | 1015.2 hPa | 0 mm | - | - | - |
| 1777849116 | 21.11° C | 32% | 1015.2 hPa | 0 mm | - | - | - |
| 1777848816 | 21.11° C | 32% | 1015.2 hPa | 0 mm | - | - | - |
| 1777848486 | 21.67° C | 32% | 1015.2 hPa | 0 mm | - | - | - |
| 1777848186 | 21.67° C | 31% | 1015.2 hPa | 0 mm | - | - | - |
| 1777847857 | 22.22° C | 31% | 1015.5 hPa | 0 mm | - | - | - |
| 1777847558 | 21.67° C | 32% | 1015.5 hPa | 0 mm | - | - | - |
| 1777847225 | 21.67° C | 31% | 1015.6 hPa | 0 mm | - | - | - |
| 1777846926 | 21.67° C | 31% | 1015.6 hPa | 0 mm | - | - | - |
* Rain latest hour (hover to see other rain measurements)
** Current wind speed in m/s (hover to see current wind gust speed)